Location: Brompton
(51.4000°N, 0.5333°E)
Time: 04:00:53
(UTC+00:00)

Cosmos 2369 Rocket - Pass Details

Date: 11 May 2021
Orbit: 827 x 854 km, 71.0° (Epoch: 13 June)

Event Time Altitude Azimuth Distance (km) Brightness Sun altitude
Exits shadow 22:17:18 20° 116° (ESE) 1,844 3.5 -17.3°
Maximum altitude 22:18:19 21° 101° (E) 1,799 3.6 -17.4°
Drops below altitude 10° 22:22:24 10° 54° (NE) 2,464 4.8 -17.6°
Sets 22:25:24 0° 39° (NE) 3,409 5.8 -17.8°
